Regional Weather Roundup
Issued by NWS

Home | Current Version | Previous Version | Graphics & Text | Print | Product List | Glossary On
Versions: 1 2 3 4 5 6 7 8 9 10 11 12 13 14 15 16 17 18 19 20 21 22 23 24 25 26 27 28 29 30 31 32 33 34 35 36 37 38 39 40 41 42 43 44 45 46 47 48 49 50
000
ASUS43 KOAX 191010
RWRNE

WEATHER ROUNDUP FOR NEBRASKA
NATIONAL WEATHER SERVICE OMAHA NE
400 AM CST FRI DEC 19 2014

NOTES: SATELLITE DATA IS BEING USED TO AUGMENT CLOUD COVER ABOVE
       12000 FEET.
       "FAIR" INDICATES FEW OR NO CLOUDS BELOW 12,000 FEET WITH NO
       SIGNIFICANT WEATHER AND/OR OBSTRUCTIONS TO VISIBILITY.

  * THESE STATIONS DO NOT REPORT WEATHER SUCH AS RAIN...SNOW OR FOG.

NEZ001>004-019>022-054>056-191100-
NEBRASKA PANHANDLE

CITY           SKY/WX    TMP DP  RH WIND       PRES   REMARKS
SCOTTSBLUFF    PTCLDY     8   5  87 N6        30.05F WCI  -2
ALLIANCE       PTCLDY     3   0  87 W6        30.04S WCI  -8
CHADRON        CLEAR     11   8  88 SW6       30.04F WCI   1
KIMBALL        CLEAR     20  15  82 W9        30.04F WCI   9
SIDNEY         CLEAR     20  15  81 W7        30.06F WCI  11
$$

NEZ057>060-069>072-079>082-191100-
SOUTHWEST NEBRASKA

CITY           SKY/WX    TMP DP  RH WIND       PRES   REMARKS
NORTH PLATTE   PTCLDY    15   9  76 CALM      30.09F HAZE
IMPERIAL       CLEAR     14  10  84 W3        30.09F
LEXINGTON      CLOUDY    28  26  96 SW7       30.12F FOG     WCI  20
MCCOOK         FOG       21  20  96 S5        30.12F VSB 1/4 WCI  15
OGALLALA       PTCLDY    13  11  92 W3        30.08F
$$

NEZ005>010-023>029-035>040-094-191100-
NORTH CENTRAL NEBRASKA

CITY           SKY/WX    TMP DP  RH WIND       PRES   REMARKS
VALENTINE      CLEAR     12   8  84 SW9       30.05S WCI   0
AINSWORTH      PTCLDY    14  12  92 SW6       30.05F WCI   5
BROKEN BOW     FOG       25  24  96 SW7       30.09F VSB 3/4 WCI  17
O`NEILL        CLOUDY    27  27 100 S7        30.10S FOG     WCI  20
THEDFORD       PTCLDY    13  11  91 CALM      30.06F
$$

NEZ041-046>049-061>064-073>077-083>087-191100-
SOUTH CENTRAL NEBRASKA

CITY           SKY/WX    TMP DP  RH WIND       PRES   REMARKS
GRAND ISLAND   CLOUDY    29  27  92 SW7       30.17S WCI  22
AURORA         CLOUDY    31  28  92 SW5       30.17S WCI  26
HASTINGS       CLOUDY    31  26  82 SW7       30.15F WCI  24
HEBRON         CLOUDY    30  27  90 S7        30.21F FOG     WCI  23
HOLDREGE       CLOUDY    29  28  93 SW5       30.13F FOG     WCI  24
KEARNEY *      CLOUDY    28  27  93 SW9       30.15F WCI  20
YORK           CLOUDY    30  28  93 SW6       30.19S WCI  24
$$

NEZ011>018-030>034-042>045-191100-
NORTHEAST NEBRASKA

CITY           SKY/WX    TMP DP  RH WIND       PRES   REMARKS
NORFOLK        CLOUDY    30  26  85 SW9       30.16S WCI  22
ALBION         CLOUDY    29  26  85 SW8       30.15S WCI  22
BLAIR          CLOUDY    31  29  92 S6        30.21S FOG     WCI  25
COLUMBUS *     CLOUDY    30  25  80 SW6       30.19F WCI  24
FREMONT        CLOUDY    32  30  94 S5        30.21F FOG     WCI  27
TEKAMAH        CLOUDY    31  28  89 S8        30.22F FOG     WCI  23
WAYNE          CLOUDY    31  27  84 S9        30.17F WCI  23
$$

NEZ050>053-065>068-078-088>093-191100-
SOUTHEAST NEBRASKA

CITY           SKY/WX    TMP DP  RH WIND       PRES   REMARKS
LINCOLN        CLOUDY    31  29  92 S6        30.23F FOG     WCI  25
OMAHA EPPLEY   CLOUDY    31  28  89 S8        30.24F WCI  23
BEATRICE       CLOUDY    30  28  90 S6        30.21F WCI  24
FALLS CITY     CLOUDY    30  27  88 SW6       30.25F WCI  24
NEBRASKA CITY  CLOUDY    30  30 100 S3        30.23F FOG
PLATTSMOUTH    CLOUDY    29  27  92 S5        30.23F FOG     WCI  24
$$

NEZ044-045-051>053-067-191100-
OMAHA AREA

CITY           SKY/WX    TMP DP  RH WIND       PRES   REMARKS
OMAHA EPPLEY   CLOUDY    31  28  89 S8        30.24F WCI  23
BLAIR          CLOUDY    31  29  92 S6        30.21S FOG     WCI  25
FREMONT        CLOUDY    32  30  94 S5        30.21F FOG     WCI  27
MILLARD        CLOUDY    32  29  90 SE3       30.23S FOG
OFFUTT AFB     CLOUDY    30  28  91 S5        30.23F WCI  25
PLATTSMOUTH    CLOUDY    29  27  92 S5        30.23F FOG     WCI  24
WAHOO          CLOUDY    31  29  91 S5        30.21F FOG     WCI  26
$$



USA.gov is the U.S. government's official web portal to all federal, state and local government web resources and services.